Home > Weather > Roskilde > Past weeks

Flag for Denmark Weather for the Past 2 Weeks in Roskilde, Denmark

Now
46 °F

Broken clouds.


Feels Like: 40 °F
Forecast: 41 / 46 °F
Wind: 16 mph from Southwest

Location: Koebenhavn / Roskilde

Current Time: Feb 6, 2016 at 1:08:11 PM

Latest Report: Feb 6, 2016 at 12:20 PM


Visibility: N/A

Pressure: 29.80 "Hg

Humidity: 93%

Dew point: 45 °F

Location of RoskildeLocation

Historic Weather in Roskilde — Graph

°F

Roskilde Temperature Yesterday

Maximum temperature yesterday: 41 °F (at 9:50 PM)
Minimum temperature yesterday: 30 °F (at 1:50 AM)
Average temperature yesterday: 36 °F

High & Low Weather Summary for the Past Weeks

 TemperatureHumidityPressure
High50 °F (Jan 27, 11:50 PM)100% (Jan 23, 6:50 PM)30.42 "Hg (Jan 23, 6:50 PM)
Low23 °F (Jan 22, 11:20 AM)66% (Jan 28, 12:20 PM)29.27 "Hg (Feb 2, 9:50 PM)
Average39 °F89%29.81 "Hg
* Reported Jan 22 11:20 AM — Feb 6 11:50 AM, Roskilde, Weather by CustomWeather, © 2016

Note: Actual official high and low records may vary slightly from our data, if they occured in-between our weather recording intervals... More about our weather records

Advertising

Roskilde Weather History for the Previous 24 Hours

 ConditionsComfort  
Time TempWeatherWind HumidityBarometerVisibility
11:50 AM
Sat, Feb 6
46 °FPartly sunny.15 mph93%29.80 "HgN/A
11:20 AM46 °FPartly sunny.14 mph93%29.80 "Hg5 mi
10:50 AM46 °FPartly sunny.15 mph93%29.80 "Hg4 mi
10:20 AM46 °FMostly cloudy.15 mph93%29.80 "Hg4 mi
9:50 AM46 °FPartly sunny.13 mph93%29.80 "Hg4 mi
9:20 AM45 °FSprinkles. Broken clouds.10 mph100%29.83 "Hg3 mi
8:50 AM45 °FSprinkles. Fog.14 mph93%29.83 "Hg3 mi
8:20 AM45 °FSprinkles. Fog.14 mph93%29.83 "Hg2 mi
7:50 AM45 °FFog.10 mph93%29.83 "Hg3 mi
7:20 AM45 °FPartly cloudy.10 mph93%29.83 "Hg4 mi
6:50 AM45 °FPartly cloudy.12 mph93%29.86 "Hg4 mi
6:20 AM45 °FFog.12 mph93%29.86 "Hg2 mi
5:50 AM45 °FFog.10 mph93%29.86 "Hg3 mi
5:20 AM45 °FPartly cloudy.12 mph93%29.86 "Hg3 mi
4:50 AM45 °FFog.12 mph93%29.89 "Hg2 mi
4:20 AM45 °FFog.9 mph93%29.89 "Hg2 mi
3:50 AM45 °FFog.13 mph93%29.89 "Hg2 mi
3:20 AM43 °FSprinkles. Fog.10 mph100%29.89 "Hg1 mi
2:50 AM43 °FFog.10 mph100%29.89 "Hg2 mi
2:20 AM43 °FFog.10 mph100%29.92 "Hg2 mi
1:20 AM43 °FPartly cloudy.10 mph100%29.92 "Hg3 mi
12:50 AM43 °FOvercast.9 mph100%29.92 "Hg3 mi
12:20 AM43 °FFog.14 mph100%29.95 "Hg2 mi
11:50 PM
Fri, Feb 5
41 °FFog.10 mph100%29.92 "Hg1 mi
11:20 PM41 °FFog.9 mph100%29.95 "Hg1 mi
10:50 PM41 °FSprinkles. Fog.9 mph100%29.95 "Hg1 mi
10:20 PM41 °FFog.9 mph100%29.95 "Hg1 mi
9:50 PM41 °FFog.10 mph100%29.95 "Hg0 mi
9:20 PM39 °FFog.9 mph100%29.95 "Hg0 mi
8:50 PM39 °FFog.9 mph100%29.95 "Hg0 mi
8:20 PM39 °FFog.10 mph100%29.95 "Hg1 mi
7:50 PM39 °FLow clouds.9 mph93%29.95 "Hg4 mi
7:20 PM39 °FSprinkles. Partly cloudy.8 mph93%29.95 "Hg4 mi
6:50 PM37 °FSprinkles. Fog.9 mph100%29.98 "Hg2 mi
6:20 PM37 °FFog.9 mph100%29.98 "Hg2 mi
5:50 PM37 °FFog.9 mph100%29.98 "Hg2 mi
5:20 PM37 °FPassing clouds.9 mph100%29.98 "Hg4 mi
4:50 PM37 °FSprinkles. More clouds than sun.9 mph100%29.98 "Hg4 mi
4:20 PM37 °FSprinkles. Partly sunny.9 mph100%30.01 "HgN/A
3:50 PM37 °FSprinkles. Cloudy.8 mph100%30.01 "HgN/A
3:20 PM39 °FPartly sunny.8 mph93%30.01 "HgN/A
2:50 PM37 °FSprinkles. Cloudy.8 mph100%30.01 "HgN/A
2:20 PM39 °FSprinkles. Partly sunny.8 mph93%30.04 "HgN/A
1:50 PM39 °FSprinkles. Broken clouds.10 mph93%30.04 "HgN/A
1:20 PM39 °FDrizzle. Broken clouds.10 mph93%30.04 "HgN/A
Weather by CustomWeather, © 2016

See weather overviewHow to use our weather pages